Wind_Speed
7 7 7 7 8 9 10 11 12 13 15 17 18 19 21 22 23 24 24 24 23 22 21 21 21 20 19 18 17 16 16 16 17 18 19 20 20 20 20 20 21 21 21 22 22 23 23 23 23 22 22 22 21 20 20 20 20 20 20 20 19 19 19 20 20 20 20 21 21 21 21 22 22 22 23 23 23 23 23 24 24 24 24 25 25 25
6 6 6 6 6 7 9 10 11 11 13 15 17 19 20 21 22 23 23 23 22 21 19 19 18 17 16 15 15 15 16 17 18 19 19 20 20 20 20 21 21 22 23 23 23 23 23 23 23 22 22 21 21 20 20 20 20 20 20 20 20 20 20 20 20 20 21 21 21 22 22 23 23 23 24 24 24 24 24 25 25 25 25 25 26 26
5 5 6 6 5 6 8 9 10 11 10 12 15 17 18 19 20 20 20 20 19 18 16 15 14 14 14 14 15 16 17 17 18 19 19 20 20 21 21 22 23 23 24 24 24 23 23 23 22 22 22 21 20 20 20 20 20 20 20 20 20 21 21 21 21 21 22 22 23 23 23 24 24 24 24 25 25 25 25 25 25 26 26 26 26 26
5 5 6 6 6 7 8 9 10 11 11 12 14 16 16 16 16 16 17 17 15 14 13 13 12 13 14 15 16 17 18 18 19 20 20 21 22 22 23 24 24 24 24 24 23 23 23 22 22 22 21 21 20 20 20 20 21 21 21 21 21 21 21 22 22 22 23 23 24 24 24 25 25 25 25 25 25 25 25 26 26 26 26 26 27 27
5 5 6 5 5 6 8 8 9 10 11 12 13 14 14 13 12 13 14 14 12 11 11 12 12 13 15 16 17 18 19 20 20 21 22 23 24 24 24 25 25 24 24 23 23 22 22 22 22 22 21 21 21 21 20 21 21 21 21 21 21 22 22 22 23 23 24 24 24 25 25 25 25 25 25 25 25 25 25 25 25 26 26 26 27 27
4 6 6 6 5 5 6 7 8 8 9 10 11 12 12 12 11 11 11 11 10 10 11 13 14 15 16 17 18 19 20 21 22 23 24 24 25 25 25 25 24 24 23 23 22 22 22 22 22 22 21 21 21 21 21 21 21 21 21 21 21 22 22 23 23 24 24 25 25 25 25 25 25 26 26 26 25 25 25 25 25 26 26 26 27 27
5 6 7 6 6 6 6 6 7 7 7 7 8 9 10 11 11 11 10 11 11 12 13 14 15 16 17 17 19 20 21 22 23 24 24 24 24 24 24 23 23 23 22 22 22 22 22 22 22 22 21 21 21 21 21 21 21 21 21 21 22 23 23 24 24 25 25 25 25 25 25 25 25 25 26 26 26 26 25 25 25 26 26 26 26 26
5 6 6 6 6 6 6 7 8 9 8 7 7 7 8 9 9 10 12 13 14 14 14 14 14 15 15 16 17 19 20 21 22 22 22 22 22 22 22 22 22 22 22 22 22 22 22 22 22 22 22 21 21 21 21 22 22 22 22 22 23 23 24 24 25 25 25 25 25 25 25 25 25 25 25 25 26 25 25 25 25 25 25 26 26 26
5 5 6 6 6 5 5 6 9 10 11 9 7 6 7 7 7 8 9 11 12 14 14 13 13 12 13 15 16 18 19 20 20 20 20 19 19 19 20 20 20 21 21 21 21 21 21 22 22 22 22 22 22 22 22 23 23 23 23 23 23 24 24 25 25 25 25 25 24 24 24 24 24 24 25 25 25 25 25 25 25 25 25 25 25 26
4 4 5 6 6 5 4 5 8 12 12 11 10 8 7 7 6 6 6 7 8 10 12 12 11 11 12 14 16 17 18 18 19 19 19 20 19 19 19 19 20 20 21 21 21 21 21 21 22 22 22 23 23 23 24 24 24 24 23 23 23 24 24 24 25 25 24 24 24 24 23 23 23 23 24 24 24 24 24 24 24 25 25 25 25 25
3 3 3 4 4 4 3 5 8 11 11 11 10 10 10 9 6 5 5 6 6 6 8 9 9 10 11 13 14 15 16 16 16 17 18 19 20 19 19 19 20 20 21 21 21 21 22 22 22 23 23 23 24 24 23 23 23 22 22 22 22 22 22 23 23 23 23 23 22 22 22 22 22 23 23 23 23 24 24 24 24 25 25 25 25 25
2 2 2 3 3 3 3 4 6 8 8 7 6 6 6 8 8 6 5 5 5 5 7 8 9 10 11 13 14 14 14 14 14 15 16 17 18 18 18 18 19 19 20 20 21 21 22 22 22 22 22 22 22 22 21 21 20 20 20 20 20 20 20 21 21 21 21 21 21 21 22 22 22 22 23 23 24 24 24 24 25 25 25 25 25 25
2 2 2 2 2 2 3 3 3 4 4 4 4 4 3 5 7 7 5 5 6 7 8 10 10 10 12 13 14 13 13 13 13 14 14 15 15 15 16 16 16 16 17 18 19 20 20 20 20 20 20 20 20 20 19 19 18 18 18 18 18 18 19 19 19 20 20 20 21 21 21 22 22 23 23 23 24 24 24 25 25 25 25 25 25 25
2 2 2 2 2 3 3 3 3 3 3 3 3 3 2 4 6 7 6 6 6 7 9 10 10 10 10 12 12 12 12 11 12 12 12 12 12 13 14 14 14 14 15 16 17 17 17 17 18 18 18 18 18 18 18 18 17 17 17 17 17 18 18 19 19 20 20 21 21 21 22 22 22 23 23 23 24 24 25 25 25 25 25 25 25 25
2 2 2 3 3 3 3 3 3 3 3 3 4 4 4 5 6 6 5 5 5 5 7 8 9 8 8 9 10 11 11 10 9 9 10 11 11 12 13 14 14 14 14 15 16 16 16 16 16 17 17 17 18 18 18 18 18 18 18 18 18 19 19 19 20 20 21 21 21 22 22 22 22 23 23 23 24 24 25 25 25 25 25 25 25 25
3 3 3 3 3 3 3 3 3 3 2 3 4 5 3 3 3 4 4 5 5 5 6 7 8 7 6 7 8 9 9 8 7 8 9 11 12 12 12 13 14 14 15 15 16 16 16 16 16 16 17 17 17 18 18 19 19 19 19 19 19 19 20 20 20 21 21 21 21 22 22 22 22 23 23 24 24 24 25 25 25 25 26 26 26 26
3 3 3 3 3 3 3 3 3 2 2 3 5 5 3 3 3 3 4 4 5 5 5 6 6 5 5 5 6 7 9 8 8 8 10 11 13 13 12 13 14 15 15 16 16 17 16 15 15 16 16 17 17 18 19 20 20 20 20 19 19 19 20 20 20 21 21 21 21 22 22 22 22 23 23 23 24 24 24 25 25 25 25 26 26 26
3 3 3 3 3 2 2 3 3 3 3 3 3 4 4 4 4 4 4 4 5 5 5 5 5 5 4 4 5 6 9 10 10 10 11 12 13 13 13 14 15 16 16 16 16 16 15 15 15 16 17 17 19 20 21 21 21 20 19 19 19 19 20 20 20 21 21 21 21 22 22 22 22 23 23 24 24 24 24 24 25 25 25 26 26 26
3 3 3 2 2 2 2 3 3 3 3 2 2 3 3 4 4 4 4 5 5 5 6 6 6 6 6 7 6 6 9 11 11 11 11 12 13 14 13 13 14 15 15 15 15 15 15 15 16 18 18 19 20 21 21 21 21 20 19 19 19 20 20 20 21 21 21 21 21 22 22 22 23 23 23 24 24 24 24 25 25 25 25 26 26 27
2 3 3 2 2 2 2 3 3 3 2 2 3 3 4 4 4 5 5 5 5 6 6 7 7 7 7 8 8 8 9 10 10 11 11 13 14 14 13 13 13 14 15 15 15 15 14 15 16 17 18 19 19 20 21 21 21 20 20 20 20 20 20 20 20 20 20 21 21 22 22 23 23 23 24 24 24 25 25 25 25 26 26 26 27 27
2 3 3 2 2 2 2 2 2 2 2 2 3 4 5 5 5 5 5 5 6 6 6 7 7 8 8 8 9 9 9 9 9 10 11 12 13 13 11 11 11 13 14 15 15 14 14 15 15 16 17 18 19 20 21 21 21 20 20 20 19 19 19 19 19 19 19 20 21 22 23 23 23 24 24 24 25 25 25 25 26 26 27 27 27 28
2 2 2 2 2 2 1 1 1 2 2 3 4 4 5 5 5 6 6 6 6 7 7 8 8 9 9 10 11 11 10 10 9 9 10 11 12 12 10 9 10 12 14 15 15 14 14 15 16 17 18 18 19 20 21 21 21 21 20 19 18 18 17 17 18 18 19 20 21 22 23 23 24 24 24 25 25 25 26 26 27 27 27 28 28 28
3 2 2 2 2 2 2 2 2 2 3 4 4 5 5 6 6 7 6 7 7 8 9 9 10 11 11 12 12 12 11 10 9 9 9 10 11 12 10 10 11 13 14 15 15 15 15 16 17 17 18 19 20 21 21 21 21 21 20 19 18 17 17 17 18 19 20 22 22 23 23 24 24 25 25 25 26 26 26 27 27 27 28 28 28 29
3 3 2 2 2 2 2 2 3 3 4 4 5 6 7 8 9 9 8 8 9 9 9 10 11 12 12 11 11 11 10 9 8 8 9 10 12 12 11 11 12 14 15 15 15 15 16 17 18 18 19 19 19 20 20 20 20 20 20 20 19 19 19 20 20 21 22 23 23 24 24 24 25 25 26 26 26 27 27 27 27 28 28 28 29 29
4 3 3 3 3 4 3 4 4 4 4 5 6 8 8 8 8 8 9 9 9 9 9 9 10 10 10 9 9 9 9 8 8 8 8 10 12 13 12 11 12 14 15 15 15 15 16 17 18 19 19 19 19 19 19 19 20 20 20 20 20 21 21 21 22 22 23 23 24 25 25 25 26 26 26 27 27 27 27 27 27 28 28 29 29 30
5 5 5 5 5 5 5 5 5 5 6 6 8 8 8 7 7 7 7 7 7 6 7 8 9 9 10 9 9 9 9 9 8 8 9 9 12 13 13 11 11 13 15 16 15 15 16 17 19 19 19 19 19 19 18 18 18 19 19 20 21 21 22 22 23 23 24 24 25 25 26 26 26 27 27 27 27 27 27 27 28 28 28 29 30 30
7 6 7 7 6 6 6 7 7 7 7 7 8 8 8 7 7 6 5 5 5 4 5 7 8 9 10 10 10 10 10 9 9 9 9 10 11 12 12 11 11 12 15 16 16 16 17 18 19 20 20 19 18 17 17 17 17 18 19 20 21 22 23 23 24 24 24 25 25 26 26 26 26 27 27 27 27 27 27 27 28 28 28 29 29 29
8 8 8 8 8 9 9 10 10 10 10 10 9 9 8 8 7 7 6 5 4 4 6 7 8 8 9 10 11 12 12 11 11 10 9 9 10 11 12 11 11 12 14 16 17 18 18 18 19 19 18 17 16 15 15 15 16 17 19 20 21 22 23 23 24 24 24 25 25 25 26 26 26 27 27 27 27 27 27 27 27 28 28 28 27 27
10 10 11 11 12 12 12 12 12 12 12 12 11 10 9 8 8 8 7 6 6 6 8 9 9 9 10 11 12 13 13 12 11 9 8 8 9 11 12 11 12 12 13 15 17 18 18 17 16 16 15 15 14 14 15 15 16 17 19 20 21 22 22 22 23 23 23 24 24 25 25 26 26 26 26 27 27 27 27 27 27 27 26 26 25 25
10 10 11 11 12 12 11 11 10 11 11 11 10 9 8 8 8 8 8 7 7 8 9 9 10 10 10 10 10 10 10 9 7 6 6 6 8 10 11 11 12 12 12 13 12 12 14 15 13 12 12 12 13 15 16 17 18 19 19 20 20 20 20 21 21 22 22 23 24 24 25 25 26 26 26 26 26 26 26 26 26 25 24 24 24 24
8 8 8 9 9 8 8 8 9 8 8 8 7 7 7 7 7 8 8 7 7 8 8 9 10 10 9 8 6 5 5 5 4 4 4 6 8 10 11 12 12 12 11 9 6 5 8 11 12 11 11 12 15 17 18 19 19 19 19 19 20 20 19 19 20 21 22 22 23 24 24 24 25 25 25 26 26 26 26 25 25 24 23 23 23 23
8 8 8 7 7 7 8 8 8 8 7 7 7 7 7 7 8 8 8 8 8 8 8 9 10 10 10 9 7 6 7 7 6 5 5 7 10 11 11 11 12 12 11 10 9 7 6 8 12 15 15 16 18 19 19 19 19 19 19 19 19 19 19 19 19 20 21 21 22 23 23 24 24 24 25 25 25 25 25 24 24 23 22 22 23 23
8 8 8 7 7 7 8 8 8 7 7 7 8 8 8 9 9 10 10 10 10 9 9 10 10 11 11 11 11 12 12 12 10 9 8 9 10 11 11 12 12 13 13 12 13 13 12 12 16 19 19 19 18 18 19 19 19 19 19 19 20 20 20 19 19 20 20 21 22 22 23 23 23 23 24 24 24 24 24 23 23 22 22 22 22 23
8 8 8 8 8 7 8 8 8 8 8 8 9 9 9 10 10 11 11 11 11 11 11 11 11 11 11 11 12 13 13 13 11 10 9 10 10 11 12 12 13 13 13 13 14 14 15 17 18 18 19 20 20 19 19 19 19 19 18 18 19 20 20 20 19 20 21 21 22 22 22 22 22 22 22 22 22 22 22 22 22 22 22 22 23 23
8 8 8 8 8 8 9 9 9 9 9 9 9 10 11 11 11 11 11 12 12 12 12 12 12 11 11 11 11 12 12 12 10 9 9 9 10 11 13 13 13 13 13 13 13 13 14 16 17 17 17 20 21 21 19 18 18 18 18 18 18 19 20 20 20 20 21 21 22 22 22 22 21 21 21 21 21 22 22 23 23 24 24 24 25 25
7 8 8 8 8 9 10 10 10 9 9 10 10 11 12 12 11 11 12 12 13 13 13 13 13 13 12 13 13 13 13 13 11 10 10 11 12 13 13 14 13 13 13 14 14 14 14 16 18 19 18 18 19 20 20 18 17 17 18 18 19 20 20 20 20 21 21 22 22 22 22 21 21 21 21 22 22 23 24 25 25 25 25 25 26 26
7 8 8 8 8 9 10 9 9 10 10 11 11 11 11 11 11 11 12 13 13 13 13 13 13 13 14 14 14 15 15 15 14 13 13 14 14 15 15 16 15 14 14 14 15 15 15 16 17 18 18 17 17 18 20 20 19 19 19 19 19 20 20 20 21 21 21 22 22 22 22 22 22 22 23 23 23 24 24 24 24 24 24 24 25 26
6 7 8 8 8 9 9 9 9 9 10 10 10 9 9 10 10 11 11 12 12 13 13 13 13 13 14 15 16 17 17 18 18 17 17 17 17 17 17 18 18 17 16 16 16 16 16 15 13 12 14 17 19 20 21 21 21 21 21 21 21 21 21 20 20 20 20 21 22 23 23 23 23 23 23 23 22 22 22 22 22 22 22 23 24 25
7 7 7 7 7 8 8 8 8 8 8 8 9 9 9 10 11 11 11 12 13 14 14 14 13 14 15 16 17 18 19 20 21 22 21 20 19 19 19 19 19 18 18 17 17 17 17 16 14 13 14 16 19 21 22 21 21 21 22 23 23 22 20 19 19 19 20 21 23 23 24 23 22 22 22 22 22 22 22 22 22 21 21 22 23 24
8 8 8 8 8 7 7 7 7 7 8 8 9 9 10 11 11 11 12 12 14 15 14 14 14 15 16 16 17 18 19 20 21 21 20 20 20 19 19 19 19 18 18 17 17 17 17 18 19 19 19 19 20 21 22 22 22 22 22 22 22 21 21 20 20 21 22 22 22 23 23 22 22 21 22 22 22 22 22 22 22 22 22 22 22 23
9 9 9 8 8 7 7 7 7 7 8 8 9 10 10 10 10 10 10 10 11 12 12 12 13 14 14 15 16 16 17 18 18 18 19 19 19 19 19 19 19 18 17 17 18 18 17 18 19 20 20 21 22 23 23 23 23 23 23 22 23 24 24 23 22 22 22 21 21 21 21 22 23 23 23 23 23 23 23 23 24 24 24 23 23 24
10 10 10 9 8 7 7 7 8 9 9 10 10 9 9 9 9 10 10 10 10 10 10 11 11 12 13 14 14 15 15 16 16 17 17 17 17 17 17 18 18 17 17 16 17 18 18 18 19 20 21 21 21 22 23 24 24 23 22 22 24 25 26 24 22 20 19 20 21 21 22 23 23 24 24 24 24 24 24 24 25 25 25 25 24 24
11 11 10 9 8 7 7 8 9 10 10 9 9 9 9 9 9 9 10 10 10 10 10 10 11 11 13 13 14 14 14 14 15 15 15 15 15 15 16 16 16 16 16 16 16 17 18 18 19 20 21 21 21 22 23 24 24 24 22 22 22 22 20 22 21 20 20 21 22 23 23 23 24 24 25 25 25 25 25 25 25 25 25 25 24 25
11 11 10 9 9 9 10 10 9 9 9 10 10 10 10 10 9 9 10 10 10 11 11 11 11 12 13 13 14 13 13 12 12 12 13 14 14 15 15 16 16 16 16 16 16 17 18 18 19 20 20 20 21 22 23 23 24 24 23 23 22 21 21 22 24 24 24 24 24 23 23 23 24 25 26 26 26 26 25 25 25 25 25 24 24 25
11 11 11 10 10 9 10 10 10 10 9 10 10 10 10 10 9 9 9 10 10 10 10 10 11 11 12 12 12 12 12 11 10 10 11 11 12 13 14 15 15 16 16 17 17 18 18 18 20 20 20 20 21 22 23 23 24 24 24 23 22 23 24 25 25 24 24 24 24 24 23 23 24 25 26 26 26 25 25 25 25 25 25 25 25 25
11 11 11 11 11 10 10 10 10 10 10 10 10 10 10 9 9 9 9 10 10 10 11 10 10 11 11 12 12 12 11 11 10 10 10 10 11 11 12 13 14 15 16 17 17 18 19 19 20 21 21 21 22 23 23 23 23 23 23 23 23 23 24 24 24 23 23 23 24 24 24 23 24 24 25 26 27 27 27 26 25 25 25 25 25 26
12 12 12 12 12 11 11 11 10 10 11 11 10 10 10 9 9 9 10 10 10 10 10 11 11 11 12 12 12 12 11 11 11 11 11 11 11 11 11 12 13 14 15 16 17 19 20 21 21 21 21 21 22 23 23 22 22 22 22 23 23 23 24 24 24 23 23 23 24 24 24 24 24 24 25 27 27 28 27 26 25 25 25 25 26 26
12 13 13 13 12 12 11 10 10 10 10 10 10 10 10 10 10 10 10 10 10 10 10 10 11 11 12 12 12 12 12 12 12 12 12 12 12 11 11 12 12 14 15 16 18 20 21 22 22 23 22 22 22 22 23 22 22 21 22 22 22 23 23 24 24 23 23 23 23 23 23 23 24 24 26 27 27 28 28 27 26 26 25 25 25 26
14 13 14 13 12 12 11 10 10 9 9 9 10 10 10 10 10 10 11 10 10 10 10 11 11 11 12 12 12 12 12 12 12 12 12 12 12 11 11 12 13 14 16 17 17 19 20 21 22 22 22 22 22 23 23 23 22 22 22 22 22 22 23 24 24 23 22 22 23 23 23 23 23 24 26 26 28 29 30 29 28 26 25 25 25 26
15 14 14 13 12 12 11 10 10 9 9 9 10 9 9 9 10 10 10 10 10 10 10 11 11 11 11 12 12 12 12 12 12 12 12 12 11 11 11 12 13 14 15 16 17 17 18 18 19 19 19 19 20 21 22 23 22 22 22 22 21 22 22 23 24 23 23 23 24 23 23 24 24 24 24 25 26 28 29 29 28 27 25 24 24 25
15 14 14 13 13 13 12 11 10 9 9 9 9 9 10 10 10 10 10 10 10 10 10 10 11 11 12 12 12 12 12 12 12 13 12 12 11 11 12 13 13 14 15 15 15 15 14 14 14 15 17 16 16 17 19 20 21 21 21 21 21 21 21 22 23 23 23 24 24 24 25 25 25 24 23 24 25 26 27 28 28 28 26 25 24 26
Wind_Direction
235 238 240 240 237 236 238 238 235 231 229 227 226 227 228 228 228 231 234 237 239 241 243 246 249 253 257 260 264 266 268 268 269 270 273 276 279 282 283 284 285 287 288 289 290 290 290 289 287 285 282 280 279 279 278 277 276 276 275 274 274 275 276 277 277 277 277 277 277 276 276 276 275 275 275 275 275 275 275 274 274 274 273 273 273 272
236 237 240 240 235 232 235 233 228 224 223 223 224 225 226 226 227 229 233 236 238 241 243 247 251 256 260 264 266 267 267 267 269 272 276 279 282 283 284 285 286 288 289 289 290 290 289 287 285 282 280 279 278 278 277 276 275 274 274 273 273 273 274 275 276 276 277 276 276 276 275 274 274 274 274 274 275 275 274 274 274 273 273 273 272 272
222 227 230 231 226 225 232 229 222 215 214 219 222 223 224 224 225 229 231 235 239 243 247 251 256 260 261 262 264 265 267 269 273 277 280 282 284 284 285 287 288 289 289 290 289 289 287 284 281 279 277 276 276 276 275 273 273 273 273 273 273 273 273 274 275 275 275 275 275 275 275 274 274 275 275 275 275 275 275 274 274 273 273 272 272 272
218 221 223 227 226 226 230 230 224 217 213 217 221 223 222 221 224 229 233 237 242 247 252 255 258 259 260 261 264 267 270 274 278 281 283 285 286 286 287 288 289 289 289 289 288 287 284 281 278 276 274 274 274 274 272 272 272 272 272 273 274 275 275 275 275 275 275 275 275 275 276 275 275 276 276 276 276 275 275 274 274 273 272 272 272 272
222 221 221 223 228 235 237 233 228 225 224 224 224 222 219 219 224 231 237 241 244 247 250 253 255 257 259 263 267 272 276 279 282 284 286 287 288 289 289 290 290 290 289 288 286 284 280 277 274 273 273 272 272 272 271 271 271 272 273 275 275 276 276 276 276 276 276 276 276 276 276 276 276 276 275 275 275 274 274 274 273 273 272 272 272 272
204 214 214 211 216 227 232 225 220 219 219 220 220 218 214 216 221 228 232 236 237 239 244 249 254 258 264 269 273 277 280 283 285 287 288 289 290 291 291 291 291 290 288 286 283 280 277 274 272 271 271 271 271 270 271 271 272 273 274 275 276 276 276 277 277 277 277 277 277 276 276 276 276 275 275 274 274 274 273 273 273 273 273 272 272 272
193 205 206 205 209 215 215 209 203 199 195 196 201 206 209 214 218 221 222 226 230 237 245 252 259 265 270 275 278 281 284 286 288 290 291 292 293 293 293 292 290 289 287 284 281 277 274 272 271 270 270 270 270 270 271 272 272 273 273 274 275 276 277 277 277 277 277 277 276 276 275 275 275 274 274 273 273 273 273 273 273 273 273 272 272 272
178 189 190 190 193 197 198 197 193 187 181 177 180 188 198 207 214 220 227 232 237 243 250 258 264 270 274 277 280 284 286 289 291 293 294 295 296 295 294 293 291 288 285 282 279 276 273 272 271 270 270 270 270 271 271 272 272 272 273 274 275 276 277 277 277 277 277 276 276 275 275 274 274 273 273 273 273 273 273 273 273 273 272 272 272 272
162 168 174 178 174 171 177 188 190 186 179 176 176 181 189 197 205 216 229 240 248 253 257 262 267 271 274 277 282 286 289 292 293 294 295 295 294 293 292 290 289 286 284 281 278 276 274 273 272 271 271 271 271 271 271 272 272 273 274 275 276 277 277 277 277 276 276 275 275 275 274 274 274 273 273 273 273 273 273 273 273 273 273 273 273 273
157 159 167 176 176 170 164 173 186 188 184 182 184 188 190 197 205 216 228 236 247 260 267 269 271 274 277 281 286 291 295 297 297 296 296 295 294 292 290 288 287 285 284 282 280 278 277 276 276 275 274 273 272 272 273 273 274 274 275 277 277 278 277 277 276 275 274 275 275 275 275 274 274 274 274 274 273 273 273 273 273 273 273 273 273 273
152 154 156 166 174 176 167 170 183 189 190 193 199 208 213 216 221 233 244 243 246 260 272 275 276 278 283 287 290 294 298 299 298 297 298 298 298 296 294 290 288 286 285 284 283 282 281 280 279 277 276 275 274 274 274 275 276 277 278 279 279 278 277 276 276 275 275 275 275 275 275 275 275 274 274 274 274 274 273 273 273 273 273 273 273 273
144 146 150 154 162 170 171 179 187 191 195 200 211 220 224 232 236 243 254 260 263 267 275 279 279 280 285 289 292 294 296 296 294 294 296 298 300 301 299 296 293 290 289 288 287 286 286 285 283 281 280 278 277 276 277 278 278 279 280 280 280 279 278 278 278 278 278 277 277 276 276 276 275 275 275 274 274 274 274 274 274 273 273 273 273 273
134 136 140 149 161 169 173 176 184 194 201 210 220 220 211 232 246 255 263 266 269 274 281 286 286 285 288 291 292 293 294 294 294 296 298 299 301 303 303 300 297 294 293 292 291 291 291 291 289 287 285 284 283 282 283 283 284 284 285 284 283 282 282 281 281 280 279 278 277 277 276 276 275 275 275 275 274 274 274 274 274 274 274 274 274 274
137 142 153 166 175 181 184 185 192 198 207 215 219 217 212 246 266 276 281 275 273 279 288 290 290 288 288 290 292 294 296 297 301 303 302 301 301 303 303 299 294 291 291 291 290 290 292 292 290 288 287 287 287 287 288 289 290 291 291 290 289 287 286 284 283 281 279 278 278 278 277 276 276 275 275 275 274 274 274 274 274 275 275 274 274 274
161 168 184 193 194 194 193 199 207 212 212 218 230 243 256 268 278 284 284 281 281 287 292 290 290 289 283 281 288 296 300 304 306 306 304 300 299 301 301 297 291 287 287 287 288 289 289 288 285 283 283 284 285 287 289 291 293 294 295 294 292 289 286 284 282 281 280 279 279 278 277 276 276 275 275 275 275 275 275 276 276 276 276 275 275 275
181 193 204 207 206 201 199 204 214 220 217 233 247 258 269 271 275 279 280 284 289 291 291 293 296 294 282 276 284 296 303 308 307 303 303 299 299 300 301 296 291 287 287 286 287 288 289 286 283 281 281 282 284 287 290 293 295 297 296 294 291 288 286 283 282 281 281 280 279 278 277 276 276 275 275 276 276 276 276 277 277 277 277 276 276 276
191 203 214 217 212 205 195 207 215 222 232 251 262 268 268 267 268 273 277 284 289 289 286 290 295 297 290 279 284 297 307 310 308 305 302 298 298 299 299 294 290 287 287 286 287 288 288 284 282 280 280 281 283 286 289 293 296 298 297 295 292 289 287 285 284 283 282 280 279 278 277 277 276 276 276 276 277 277 277 277 277 277 277 277 277 277
195 205 213 218 214 201 195 209 215 221 230 245 261 269 271 267 267 269 272 279 282 283 283 283 280 281 287 289 288 297 309 314 313 309 303 298 297 299 299 294 288 286 286 285 286 287 285 282 279 278 279 280 282 285 290 295 298 300 300 298 295 292 290 287 285 284 282 281 279 279 278 277 277 277 277 277 277 278 278 278 278 278 278 277 278 278
199 206 215 219 212 201 203 212 215 215 216 223 242 255 258 262 266 268 268 273 274 275 278 278 276 275 277 279 283 295 306 314 315 310 304 298 297 298 297 292 287 284 284 283 284 284 284 282 281 281 282 283 285 289 294 299 303 304 303 300 297 293 290 287 285 284 282 281 280 279 279 279 278 278 278 278 278 278 278 278 278 278 278 278 279 279
208 211 215 214 206 201 208 213 213 212 216 237 261 271 271 271 269 268 268 269 269 271 273 274 275 276 278 278 282 291 303 310 311 306 301 297 295 295 294 289 285 283 283 283 284 285 285 284 285 285 286 287 289 292 297 300 303 304 302 299 296 293 290 287 285 283 282 281 280 280 280 280 280 279 279 279 279 279 279 279 279 279 279 279 279 280
228 223 217 210 208 217 226 226 224 226 235 256 268 272 276 279 277 273 272 273 273 273 273 272 272 276 281 282 285 291 299 303 303 300 298 296 294 292 290 286 284 284 284 285 286 288 287 287 287 286 286 287 289 291 294 297 299 300 300 299 297 293 290 287 285 283 282 282 282 282 281 281 280 280 280 280 280 280 280 280 280 280 280 280 281 281
249 240 225 213 220 234 246 250 242 243 252 264 268 271 275 280 281 280 280 280 278 277 275 274 277 281 284 285 285 287 290 289 286 288 293 293 291 290 291 290 288 286 286 287 289 291 290 289 288 288 287 287 288 289 291 294 296 299 300 300 298 295 291 288 286 285 285 284 284 283 282 281 281 281 281 281 281 281 281 281 281 281 281 281 281 281
257 254 240 232 235 247 263 273 273 271 269 265 265 266 273 277 281 283 284 283 282 281 281 282 285 286 285 283 282 283 282 276 273 277 285 287 288 291 296 297 293 289 287 288 291 293 293 291 290 289 290 289 289 289 290 292 294 296 298 298 297 295 293 291 290 289 288 287 285 283 282 281 281 281 281 282 282 282 282 282 282 282 282 282 282 282
253 253 245 242 243 251 263 269 272 272 271 266 266 269 274 279 278 278 278 278 278 280 282 284 286 285 283 281 281 280 277 269 265 269 278 282 286 291 296 298 296 291 288 289 291 293 294 292 291 291 291 291 290 289 289 290 290 291 292 294 295 295 294 293 293 291 289 287 285 284 282 282 282 282 282 283 283 283 283 283 283 283 283 282 282 282
249 251 248 246 250 254 259 264 267 268 269 273 279 283 287 289 290 287 283 278 276 276 278 281 281 282 283 284 284 284 280 269 263 264 273 281 287 290 294 296 294 291 289 290 292 294 294 293 292 293 292 292 291 290 289 288 288 288 289 290 292 293 293 293 292 290 289 287 285 284 283 283 283 283 283 283 283 283 284 283 283 283 283 283 283 283
248 249 249 253 255 257 260 263 266 268 274 282 288 292 297 297 294 288 280 275 270 268 272 276 279 282 286 289 289 287 285 278 269 265 269 279 287 291 293 294 292 290 290 292 294 295 295 294 294 294 294 292 291 290 289 288 288 289 289 290 291 291 291 291 290 289 288 287 286 286 285 285 285 284 284 284 284 284 284 284 284 284 284 284 284 284
248 250 253 256 259 261 265 267 268 270 273 277 281 286 289 288 286 281 266 262 260 265 274 281 285 288 290 289 287 286 287 284 277 270 267 274 282 288 291 294 294 293 293 294 295 296 295 294 293 293 293 292 291 290 290 290 291 292 292 292 292 291 290 290 289 288 287 287 287 287 287 286 286 285 285 285 285 285 285 284 284 284 285 285 285 284
252 255 258 262 266 269 271 271 272 272 271 270 270 271 275 278 280 278 274 277 281 283 282 282 286 289 290 289 288 287 288 285 279 272 266 270 277 283 289 295 296 296 298 298 298 297 294 291 290 290 290 290 291 291 291 292 293 293 292 292 291 290 289 288 287 287 287 287 287 286 286 286 286 286 285 285 285 285 285 284 285 286 286 286 285 284
261 264 267 270 273 277 279 279 278 277 275 272 267 264 267 270 271 272 275 281 286 285 281 281 282 285 287 289 290 289 287 281 275 266 262 269 275 281 289 295 298 300 304 305 304 301 295 291 289 288 288 290 292 293 294 296 296 295 294 292 290 289 287 287 286 286 287 287 287 286 286 285 285 285 284 284 284 285 284 284 285 286 286 285 284 282
260 264 268 271 275 279 282 283 283 284 283 280 272 264 262 262 264 267 271 276 279 279 279 280 280 281 285 290 292 291 286 280 267 256 262 271 278 284 293 297 299 302 307 309 308 304 298 295 291 289 289 293 295 296 297 298 297 296 295 293 291 289 287 287 286 285 286 287 287 286 286 285 285 284 284 284 284 284 284 285 285 285 285 284 283 281
251 253 259 265 268 271 275 280 285 288 290 289 281 270 261 258 259 262 264 267 269 271 273 275 277 277 278 283 287 288 285 287 283 280 285 282 282 288 296 297 298 298 300 302 304 305 303 301 297 294 294 296 297 297 296 296 296 295 295 294 292 290 289 289 288 288 288 288 288 288 287 286 285 284 284 284 284 284 284 284 284 284 284 283 282 280
255 255 257 260 260 261 265 273 278 281 284 286 284 277 269 262 259 259 259 260 261 263 266 270 272 272 270 268 266 266 272 281 290 298 299 290 286 287 291 292 292 292 292 287 283 284 294 297 298 298 298 296 295 295 294 294 294 293 294 293 292 291 291 291 292 291 291 290 290 290 289 288 287 286 285 285 284 283 283 283 282 282 281 281 280 280
258 258 258 260 260 261 262 266 266 266 271 275 279 279 277 272 268 265 264 263 262 262 263 266 269 269 268 264 262 263 267 272 277 284 288 286 285 285 287 287 288 289 289 284 279 275 276 281 290 295 296 295 294 294 294 294 293 292 292 291 291 292 293 294 294 293 293 292 292 292 291 290 289 288 287 286 285 284 283 282 281 280 279 279 279 280
253 254 254 258 260 261 260 259 257 258 262 268 273 276 276 274 271 269 267 266 264 263 262 261 263 265 266 266 264 264 266 268 273 278 281 279 279 281 284 284 285 287 288 286 282 278 276 279 284 291 295 295 295 294 293 293 292 291 290 289 290 291 293 295 295 294 294 294 294 293 293 292 291 290 289 287 286 285 283 283 281 279 278 277 277 279
248 249 252 256 260 262 262 260 259 259 261 265 270 272 273 272 271 269 267 266 265 264 262 259 257 258 259 262 265 266 267 270 273 276 277 275 277 280 283 281 281 283 285 284 284 283 282 282 284 288 293 296 296 295 293 292 292 291 290 289 289 290 292 293 294 294 294 294 294 293 294 293 292 291 290 288 287 286 285 284 282 280 278 276 275 276
248 252 255 258 261 262 262 261 260 260 262 266 269 272 273 273 272 270 269 268 267 265 263 260 257 254 253 255 259 263 267 271 275 277 276 274 274 276 278 277 277 279 280 281 282 283 284 286 287 289 290 292 295 296 295 295 294 293 292 291 291 290 291 291 292 293 293 293 293 293 293 293 292 291 290 289 288 287 286 285 283 281 279 277 275 273
253 259 261 260 260 261 262 261 259 261 264 269 272 273 273 272 272 272 272 272 271 269 266 263 259 257 255 255 258 261 266 271 274 274 273 273 272 272 273 274 275 274 274 276 279 282 283 286 289 289 288 287 289 294 297 299 299 297 294 293 293 292 291 291 291 291 291 291 292 292 293 293 293 292 291 291 290 289 287 286 284 282 281 279 276 274
258 264 265 260 258 259 259 258 259 261 266 269 271 272 272 272 274 275 276 275 274 273 270 267 264 262 260 260 261 263 267 270 272 273 272 271 270 269 269 271 272 271 269 270 274 278 281 283 287 289 288 287 288 290 294 298 299 297 296 295 294 293 291 291 291 291 291 291 292 292 293 293 292 292 291 291 291 290 289 288 287 285 284 282 280 277
261 265 265 260 255 252 252 254 258 263 267 270 272 275 276 278 279 280 279 278 279 278 275 271 268 267 266 266 266 267 269 271 273 273 273 271 268 266 266 267 269 269 268 267 269 271 274 276 278 281 286 289 290 291 293 294 295 296 297 298 297 294 292 292 292 293 292 293 293 293 293 292 292 291 290 291 291 290 290 289 288 287 287 286 284 282
267 267 265 261 255 250 250 255 261 267 272 275 277 279 281 283 284 284 282 282 283 282 278 272 270 270 270 270 269 270 272 273 275 275 274 271 268 265 263 263 265 267 269 268 267 267 267 270 273 276 279 284 288 291 293 293 293 294 297 299 298 296 295 295 295 294 294 293 292 292 292 293 292 291 290 290 289 288 288 289 288 288 287 286 286 286
267 263 262 259 255 251 251 257 265 272 277 280 282 283 283 285 286 286 287 284 283 282 278 276 274 273 272 272 272 272 272 273 273 273 272 272 271 267 264 262 263 265 268 268 268 266 265 267 271 275 278 281 285 288 289 289 291 293 295 295 294 295 296 296 295 294 294 292 291 291 292 293 292 292 291 290 288 287 287 287 287 287 286 285 283 282
263 261 261 258 255 254 257 266 274 279 282 285 285 282 282 283 285 288 288 286 284 282 280 278 277 276 277 276 275 274 272 271 271 271 272 273 274 271 267 264 263 264 266 267 268 267 266 267 270 274 277 281 284 286 288 288 290 291 291 291 293 296 297 296 295 294 293 293 293 293 293 292 292 292 291 290 289 288 287 285 285 284 284 282 280 278
260 260 259 257 257 258 264 274 280 283 284 283 281 280 281 281 281 283 285 284 283 282 281 279 279 280 281 281 281 280 277 275 272 270 269 271 273 273 269 265 263 263 264 266 268 270 270 270 270 272 276 279 281 283 285 288 290 291 290 290 293 295 296 296 296 297 295 294 293 293 292 291 291 291 290 289 289 288 287 286 284 283 282 280 279 278
260 260 259 259 260 264 271 276 279 279 281 281 281 282 282 279 277 278 279 279 280 280 280 281 281 281 280 280 281 283 282 278 274 270 268 268 270 272 270 268 266 265 264 264 267 272 275 275 274 275 277 279 280 282 283 286 289 290 289 290 289 288 287 291 294 297 296 294 292 291 290 290 291 291 291 289 288 288 287 286 285 283 281 279 278 277
262 262 262 262 261 263 267 272 275 277 277 279 281 281 279 275 272 272 274 277 280 280 279 280 282 282 279 280 282 285 285 284 280 275 272 271 270 270 271 270 269 267 266 265 266 270 274 277 279 281 282 281 280 280 282 284 286 288 288 289 288 286 285 288 290 293 293 293 292 291 291 291 291 292 291 290 288 287 287 286 285 284 282 280 278 276
260 262 263 263 263 263 264 269 272 273 275 277 277 277 275 271 268 269 272 276 278 279 279 278 278 277 278 281 284 287 287 287 286 284 282 280 277 275 272 271 270 269 268 268 269 270 272 274 279 282 285 285 282 280 279 280 283 285 287 289 289 289 289 289 289 289 289 290 291 291 291 292 292 291 290 290 289 289 287 286 284 282 282 280 278 276
255 259 262 264 264 265 266 266 267 269 272 273 274 273 270 267 267 269 272 275 276 277 277 276 274 273 275 279 283 285 287 288 289 289 289 288 286 282 277 275 274 272 273 273 273 274 273 273 274 277 280 282 282 281 280 279 280 282 285 288 290 290 290 289 289 289 289 288 289 290 292 294 294 293 291 292 291 290 288 286 284 281 280 279 277 276
254 258 262 263 263 262 261 260 261 263 266 269 271 271 269 267 266 268 271 273 274 275 276 275 275 274 276 278 280 281 283 285 288 290 291 291 290 287 284 283 283 283 282 280 278 276 275 273 271 270 271 273 275 278 281 281 281 282 284 287 288 288 288 288 289 290 289 288 288 290 293 294 294 294 294 294 292 290 289 287 285 282 279 277 276 275
254 256 260 260 260 258 256 256 257 259 262 265 269 271 268 268 266 264 267 270 272 273 273 274 275 276 277 278 280 281 283 284 286 288 290 291 291 290 291 292 294 293 291 287 284 282 280 277 273 268 265 264 267 273 278 281 282 283 284 285 286 286 287 288 290 291 291 291 291 293 294 293 292 292 293 293 291 289 289 288 286 283 280 278 275 273
253 254 255 255 254 254 254 254 255 256 260 264 268 271 269 269 267 265 265 266 268 268 269 271 273 276 278 280 282 283 284 285 286 287 287 289 291 294 297 299 301 300 298 296 294 293 291 288 283 276 268 262 262 267 274 279 283 285 285 285 285 285 287 289 291 292 293 293 294 295 295 293 292 290 289 288 287 287 288 288 287 285 283 280 278 275
250 251 252 252 252 252 252 252 253 254 258 262 266 269 272 271 269 266 265 264 264 265 266 268 272 274 277 280 282 282 282 283 284 284 285 288 292 297 300 301 302 301 301 301 300 300 299 297 294 290 283 273 265 265 270 277 283 286 287 286 286 286 288 289 291 292 293 294 294 294 294 293 291 289 286 285 286 287 288 288 287 286 285 284 282 280
Height
765 765 766 766 767 767 768 768 769 770 770 770 771 771 771 772 773 773 774 774 775 775 775 776 776 776 777 777 777 778 778 779 779 780 780 779 779 779 778 778 777 777 776 776 775 775 775 775 774 774 774 773 773 772 772 772 771 771 771 771 770 770 770 770 769 769 769 768 768 768 767 767 766 766 766 765 765 764 764 764 764 763 763 763 763 762
764 765 765 766 767 767 767 768 768 769 769 770 770 770 771 771 772 772 773 774 774 774 775 775 775 775 776 776 777 777 777 778 778 778 778 778 777 777 777 776 776 775 775 774 774 773 773 773 772 772 772 771 770 770 769 769 769 769 768 768 768 767 767 767 767 767 767 766 766 765 765 764 764 763 763 763 762 762 762 762 762 761 761 761 761 760
764 765 765 765 766 767 767 767 768 768 769 770 770 770 771 771 772 772 772 773 773 774 774 774 774 775 775 776 776 776 777 777 777 777 776 776 776 775 775 774 774 773 773 772 772 772 771 771 771 771 770 769 768 767 767 767 767 767 766 766 765 765 764 764 764 764 764 763 763 762 762 762 761 761 761 761 760 760 760 759 759 759 759 759 758 758
764 764 765 765 766 766 766 767 767 768 768 768 769 769 770 771 772 772 772 773 773 773 774 774 774 775 775 775 775 775 775 775 775 775 775 774 774 773 773 772 772 772 771 771 770 770 770 769 769 769 768 767 766 765 765 765 765 764 764 763 763 762 762 762 762 761 761 761 760 760 760 759 759 759 758 758 758 758 757 757 757 757 757 756 756 756
764 764 764 765 766 766 766 766 767 767 767 768 768 769 770 771 771 771 772 772 773 773 773 774 774 774 774 774 774 774 774 774 774 773 773 773 772 772 771 771 770 770 769 769 769 768 768 768 767 767 766 765 764 763 763 763 762 762 762 761 761 760 760 759 759 759 759 758 758 758 757 757 757 757 756 756 756 756 755 755 755 755 754 754 754 753
764 764 764 765 765 765 766 766 766 767 767 768 768 769 770 770 771 771 772 772 772 773 773 773 773 773 773 773 773 773 772 772 772 772 771 771 770 770 769 769 768 768 767 767 767 767 766 766 765 764 764 763 762 762 761 761 760 760 759 759 758 758 757 757 757 757 756 756 756 756 755 755 754 754 754 754 753 753 753 752 752 752 752 752 751 751
763 764 764 764 765 765 765 765 766 767 767 767 768 768 769 769 770 770 771 771 772 772 772 772 772 772 772 772 772 771 771 771 770 770 769 769 768 768 767 767 767 766 766 766 765 765 764 764 763 762 762 761 760 760 759 759 758 757 757 756 756 755 755 755 755 754 754 754 753 753 753 752 752 752 752 751 751 751 751 750 750 750 749 749 749 748
763 763 764 764 764 764 765 765 765 766 767 767 768 768 769 769 769 770 770 770 771 771 771 771 771 771 771 771 770 770 769 769 769 768 768 767 767 766 766 765 765 765 764 764 764 763 762 762 761 760 760 759 758 758 757 757 756 755 754 753 753 752 752 752 752 752 752 752 751 751 750 750 750 749 749 749 748 748 748 748 747 747 747 747 747 746
763 763 764 764 764 765 765 765 765 765 766 767 767 768 769 769 769 769 769 769 770 770 770 770 770 770 770 769 769 768 768 767 767 767 767 766 766 765 764 764 763 763 763 762 762 761 761 760 759 758 758 757 757 756 755 754 753 752 752 751 750 750 750 750 750 750 749 749 749 748 748 747 747 747 747 747 746 746 746 746 745 745 745 745 744 744
763 764 764 764 764 765 765 765 765 765 765 766 767 767 768 768 769 769 769 769 769 768 768 768 769 768 768 768 767 767 766 766 765 765 765 764 764 764 763 762 762 761 761 761 760 760 759 758 757 757 756 755 755 754 753 752 751 750 749 748 747 747 748 748 748 747 747 747 746 746 746 745 745 745 744 744 744 744 744 743 743 743 742 742 742 741
764 764 764 764 764 765 765 765 765 765 766 766 767 767 767 767 768 768 768 768 768 768 767 767 767 767 767 767 766 766 765 764 764 763 763 762 762 762 761 760 760 759 759 758 758 757 757 756 756 755 754 753 752 752 751 750 749 748 747 746 746 746 746 746 746 745 745 744 744 744 743 743 743 743 742 742 742 742 742 741 741 740 740 740 739 739
764 764 764 764 765 765 765 765 765 766 766 767 767 767 767 767 767 767 767 767 767 767 767 767 766 766 766 765 765 764 764 763 763 762 762 761 760 760 759 759 758 757 757 757 756 756 755 754 753 753 752 751 750 750 749 748 747 746 745 744 744 744 744 744 743 743 743 742 742 742 742 741 741 741 741 740 740 740 739 739 738 738 737 737 737 736
764 764 764 764 765 765 766 766 766 767 767 767 767 767 767 766 766 767 767 767 767 766 766 765 765 765 764 764 763 763 763 762 762 761 760 760 759 759 758 757 757 756 756 755 754 753 753 752 752 751 750 749 748 747 747 746 745 744 743 743 742 742 742 742 742 741 741 741 740 740 739 739 739 739 739 738 738 737 737 737 736 736 735 735 734 734
764 764 764 764 765 765 766 766 766 767 767 767 767 766 766 766 766 766 766 766 766 765 765 764 764 763 763 762 762 762 762 761 760 760 759 759 759 758 758 757 756 755 755 753 752 752 751 751 750 749 748 747 747 746 745 744 743 742 742 742 741 741 740 740 740 739 739 738 738 738 737 737 737 737 737 736 736 735 735 734 734 733 733 732 732 731
763 764 764 764 765 765 765 766 766 766 766 766 766 766 766 766 766 766 766 765 765 764 764 763 763 762 762 762 761 761 760 760 759 759 758 758 757 757 757 756 755 754 753 752 751 750 750 749 748 747 747 746 745 744 744 743 742 741 741 740 739 739 738 738 737 737 737 736 736 736 736 735 735 735 735 734 734 733 732 732 732 731 730 730 729 729
763 763 764 764 764 765 765 765 766 766 766 766 765 765 766 766 765 765 765 765 764 764 764 763 762 761 761 761 760 760 760 759 758 758 757 757 756 756 756 756 754 753 752 751 749 748 748 748 747 746 745 744 743 743 742 741 741 740 739 738 738 737 737 736 735 735 735 734 734 734 734 733 733 733 732 732 731 731 730 730 729 729 728 727 727 726
763 763 763 763 764 764 765 765 765 765 765 765 765 765 765 765 765 765 765 764 764 763 763 762 762 761 760 760 759 759 759 758 758 757 756 755 754 754 755 755 753 752 751 749 748 747 747 746 745 744 743 743 742 741 740 740 739 738 737 737 736 735 734 734 733 733 732 732 732 732 732 732 731 731 730 730 729 729 728 727 727 726 726 725 725 724
763 763 763 763 763 764 764 764 765 765 765 765 765 765 765 765 765 765 764 764 764 763 763 762 762 761 760 759 759 759 758 757 757 756 755 754 753 753 753 753 752 751 749 748 747 746 746 745 744 743 742 741 740 740 739 738 737 737 736 735 734 733 732 732 731 731 731 731 731 730 730 730 729 729 728 727 727 727 726 725 725 724 723 723 722 722
763 763 763 763 763 763 764 764 764 764 764 765 765 765 764 764 764 764 764 764 763 763 762 762 761 761 760 760 759 758 757 757 756 755 754 753 752 752 752 752 751 749 748 747 746 745 745 743 742 741 740 739 738 737 737 736 735 735 734 733 732 731 731 730 730 729 729 729 729 728 728 727 727 727 726 725 725 724 724 723 722 722 721 720 720 719
763 763 763 763 763 763 763 764 764 764 764 764 764 764 764 764 764 763 763 763 763 762 762 762 761 760 760 759 758 757 757 757 756 755 754 752 751 751 751 750 749 748 747 746 745 744 743 742 741 740 738 737 737 736 735 734 733 733 732 731 730 730 729 728 728 728 727 727 727 727 726 726 725 724 724 723 723 722 721 721 720 719 719 718 717 717
762 762 762 763 763 763 763 763 763 764 764 764 764 764 763 763 763 763 762 762 762 762 762 761 760 760 759 758 757 757 757 756 756 755 753 752 751 750 750 749 748 747 745 744 744 743 742 741 739 738 737 736 735 734 733 733 732 731 730 729 729 728 727 727 726 726 726 725 725 724 724 723 723 722 722 721 721 720 719 718 718 717 716 715 715 714
762 762 762 762 762 763 763 763 763 763 763 763 763 763 763 763 762 762 762 762 762 761 761 760 760 759 759 758 757 757 756 756 755 755 753 752 749 748 748 748 747 746 744 743 742 742 741 739 738 737 736 735 734 733 732 731 730 729 729 728 727 727 726 725 725 724 724 723 723 722 722 722 721 720 720 719 718 717 717 716 715 714 714 713 712 711
762 762 762 762 762 762 762 762 762 762 762 763 763 763 763 762 762 762 761 761 761 760 760 760 759 758 758 757 756 756 755 755 755 754 753 751 748 747 747 747 746 744 743 742 741 740 739 738 737 735 734 733 732 731 730 729 728 728 727 726 726 725 724 724 723 723 722 722 721 721 720 719 719 718 717 717 716 715 714 714 713 712 711 710 709 708
762 762 762 762 762 762 762 762 762 762 762 762 762 762 762 762 761 761 760 760 760 760 759 759 758 757 757 756 755 755 754 754 754 754 753 751 748 746 746 745 744 743 742 741 740 739 738 736 735 734 732 731 730 730 729 728 727 726 725 725 724 723 723 722 722 721 720 720 719 719 718 717 717 716 715 714 713 713 712 711 710 709 708 708 707 706
761 761 761 761 761 761 761 762 762 762 762 762 761 761 761 760 760 759 759 759 759 759 758 758 757 756 756 755 755 754 754 753 753 753 752 750 747 746 745 744 744 742 741 740 739 738 737 735 733 732 731 730 729 728 727 726 725 725 724 723 722 722 721 720 720 719 718 718 717 717 716 715 714 713 713 712 711 710 709 709 708 707 706 705 704 703
760 760 760 760 760 760 761 761 761 761 761 761 761 760 760 759 759 759 758 758 758 758 758 757 756 755 754 754 754 753 753 752 752 752 752 750 747 745 744 744 743 742 740 739 738 737 736 734 732 730 730 728 727 726 725 724 724 723 722 721 721 720 719 718 718 717 717 716 715 714 713 713 712 711 710 709 709 708 707 706 706 705 704 703 702 700
759 759 759 759 759 760 760 760 760 760 760 760 760 760 759 759 759 758 758 757 757 757 757 756 755 754 754 753 753 752 752 752 751 751 751 749 747 745 743 743 742 742 740 738 737 736 735 732 731 729 728 727 725 724 724 723 722 721 721 720 719 718 717 717 716 715 714 713 713 712 711 710 709 709 708 707 706 706 705 704 703 702 701 700 699 697
758 758 758 758 759 759 759 759 759 759 759 759 759 759 759 759 758 758 757 757 757 757 757 756 755 754 753 752 752 752 751 751 750 750 749 748 747 744 743 742 742 741 739 737 736 734 733 732 730 728 726 725 724 723 722 722 721 720 719 718 717 717 716 715 714 713 712 711 711 710 709 708 707 706 706 705 704 703 702 702 701 700 699 698 697 695
757 757 757 757 758 758 758 758 758 758 758 758 758 758 758 758 758 757 757 757 757 756 756 755 755 754 753 752 751 751 750 749 749 748 748 747 746 744 742 742 742 741 740 737 735 732 731 730 728 727 726 724 724 723 722 721 720 719 718 717 716 715 714 713 712 711 710 709 708 707 707 706 705 704 703 702 702 701 700 700 699 698 697 696 694 692
756 757 757 757 757 757 757 757 757 757 757 757 757 757 757 757 757 757 756 756 756 756 755 754 754 753 753 752 751 750 748 747 747 747 747 747 745 743 742 742 741 741 741 739 736 732 729 727 727 726 725 724 723 722 721 720 719 718 717 715 714 713 712 711 710 709 708 707 706 705 704 703 702 702 701 700 699 698 698 697 697 696 695 693 692 690
756 756 756 756 756 756 756 756 756 756 756 756 756 756 756 757 756 756 756 755 755 755 754 753 753 753 752 752 751 749 747 746 746 746 747 746 744 743 742 742 741 741 741 741 738 734 729 725 725 725 725 724 722 721 720 719 718 717 715 714 712 711 710 709 708 707 706 705 704 703 702 701 700 699 698 698 697 696 696 695 695 694 693 692 690 688
755 755 756 756 756 756 755 755 755 755 755 755 755 756 756 756 755 755 755 754 754 754 753 752 752 752 751 751 750 748 747 746 746 746 746 746 744 742 742 742 741 740 740 740 740 737 732 727 724 723 723 723 722 720 719 718 717 715 714 712 711 709 708 707 707 705 704 703 702 701 700 699 698 697 696 695 695 694 693 693 692 692 691 689 688 686
754 754 754 755 755 755 755 754 754 754 754 754 755 755 755 754 754 754 754 753 753 752 752 752 751 750 750 749 748 747 746 746 746 746 746 745 743 742 741 741 740 739 739 738 738 737 734 730 726 723 722 721 720 719 717 716 715 714 713 711 709 708 707 706 705 704 702 702 700 699 698 697 696 695 694 693 692 692 691 690 690 690 689 688 686 684
753 753 753 754 754 754 754 754 754 754 753 753 753 754 754 753 753 753 752 752 752 751 751 750 750 749 748 748 747 746 745 745 745 745 745 744 743 742 741 740 740 739 738 737 736 735 732 730 727 724 721 719 718 717 716 715 713 712 711 710 708 707 706 705 704 702 701 700 698 697 696 695 694 692 692 691 690 689 688 688 687 687 687 686 684 682
752 752 752 752 753 753 753 753 753 753 753 752 752 752 752 752 752 751 751 750 750 749 749 748 748 748 747 747 746 744 743 743 744 744 744 743 742 741 740 739 739 738 737 736 735 733 731 728 727 725 722 718 716 715 714 713 712 711 710 709 707 706 705 704 702 701 699 698 697 695 694 693 692 691 689 688 688 687 686 686 685 684 684 683 682 681
751 751 751 752 752 752 752 752 752 752 752 752 752 751 751 751 751 750 749 749 748 748 747 747 746 746 746 745 744 743 742 742 742 742 742 742 742 741 739 738 737 737 737 735 733 732 730 727 725 724 722 719 716 712 712 711 711 710 708 707 706 705 703 702 701 700 698 697 695 693 692 691 690 689 687 687 686 685 684 683 682 681 681 680 679 678
750 750 750 750 750 751 751 751 751 751 751 751 750 750 750 750 749 749 748 747 747 746 746 745 745 744 744 743 743 742 741 741 741 741 741 741 740 740 738 737 736 736 736 734 732 731 730 727 724 722 721 719 716 712 710 709 709 708 707 706 704 703 702 701 700 698 697 695 693 692 691 690 688 687 686 684 683 682 681 680 679 678 677 677 676 675
749 749 749 749 749 749 749 750 750 749 749 749 749 749 749 748 748 747 747 746 745 744 744 744 743 743 742 742 741 741 740 740 739 739 739 739 739 738 737 735 734 734 734 733 732 730 729 727 724 721 719 716 714 712 711 709 707 706 704 703 703 702 700 699 698 697 695 694 692 690 689 688 687 685 684 682 681 680 679 677 677 676 675 674 673 672
748 748 748 748 748 748 748 748 748 748 748 748 748 748 747 747 747 746 745 744 744 743 743 742 742 741 741 740 739 739 738 738 737 737 737 737 737 736 735 734 733 732 732 731 731 729 728 726 724 721 718 715 712 711 709 708 707 705 703 702 700 699 698 697 696 695 694 692 690 689 687 686 685 683 682 681 679 678 677 675 674 673 672 671 670 668
747 747 747 747 747 747 747 747 747 747 747 747 747 747 746 746 745 744 744 743 742 742 741 741 740 740 739 738 738 737 737 736 735 735 735 734 734 734 733 732 731 730 730 729 729 728 727 725 722 720 718 716 713 710 708 707 706 705 703 701 698 696 696 696 695 693 692 691 689 687 686 684 683 682 680 679 678 677 675 673 672 671 670 669 668 666
747 747 746 746 746 746 746 746 746 746 746 746 745 745 745 744 744 743 742 742 741 740 740 739 739 738 737 737 736 736 735 734 734 733 733 732 732 732 731 731 730 729 728 727 727 726 725 723 721 719 717 715 713 710 707 705 704 704 703 700 697 695 693 693 693 692 690 689 687 686 684 683 681 680 678 677 676 674 673 672 671 669 668 667 666 665
746 746 745 745 745 745 745 745 745 745 745 744 744 744 743 743 743 742 742 741 740 740 739 739 738 737 736 735 735 734 734 733 732 732 731 731 730 730 729 729 728 727 727 726 725 723 722 722 720 718 716 714 712 709 706 703 702 702 702 700 697 694 692 690 690 690 689 687 685 684 683 681 679 678 676 675 673 672 671 670 668 667 666 665 663 662
745 745 744 744 744 744 744 744 743 743 743 743 743 742 742 742 742 741 741 740 740 739 738 738 737 737 736 734 733 733 732 732 731 730 730 729 729 728 728 727 727 726 725 724 723 722 720 719 718 717 715 713 712 709 705 702 701 700 699 698 697 695 691 688 687 687 687 686 684 683 681 680 678 676 674 672 671 669 668 667 666 665 663 662 661 659
743 743 743 743 743 742 742 742 742 742 742 742 742 742 741 741 741 740 740 739 739 738 737 737 737 736 735 733 732 731 731 730 729 729 728 728 727 727 726 726 725 725 724 723 722 720 718 717 716 714 713 712 710 707 704 702 700 698 697 697 696 695 692 688 686 686 685 683 682 681 680 678 676 674 672 670 668 667 666 665 663 662 661 660 658 657
742 742 742 742 742 742 741 741 741 741 741 741 741 740 740 740 740 739 739 738 738 737 737 736 736 735 733 732 731 730 730 729 728 728 727 727 726 725 725 724 724 723 722 722 721 719 718 716 714 712 712 711 709 707 704 702 699 697 696 695 694 692 690 688 686 685 683 681 680 678 677 676 675 672 670 667 666 664 663 662 661 659 657 657 655 654
741 741 741 741 741 740 740 740 740 740 740 739 739 739 739 739 738 738 738 737 737 736 736 735 735 734 732 731 730 730 729 728 727 727 726 726 725 724 724 723 722 722 721 720 719 718 717 715 713 712 710 708 707 704 702 701 699 696 694 692 692 690 688 686 685 683 682 680 678 677 675 675 673 671 668 665 663 662 660 659 658 657 655 653 652 651
740 740 740 740 739 739 739 739 738 738 738 738 738 738 738 737 737 737 737 737 736 736 735 734 734 733 732 731 730 729 728 727 726 725 725 724 724 723 722 722 721 720 720 718 717 716 715 713 712 711 709 707 704 702 699 699 697 696 693 691 690 688 686 684 682 682 680 679 677 675 674 673 671 669 666 663 661 659 657 656 655 654 652 651 649 647
738 738 738 738 738 738 737 737 737 737 737 737 737 737 737 736 736 736 736 735 735 735 734 733 732 732 731 730 729 728 727 726 725 724 724 723 722 722 721 721 720 719 718 717 715 714 712 711 710 709 708 706 703 700 697 696 696 694 692 691 689 687 684 682 681 679 678 677 675 673 672 672 670 667 665 662 659 656 654 652 652 651 649 648 646 644
737 737 737 737 737 737 736 736 736 736 736 736 735 735 735 735 735 735 735 734 734 734 733 732 732 731 730 729 728 727 727 726 725 724 723 722 722 721 720 719 718 717 716 715 713 712 710 708 707 706 705 704 702 699 696 694 693 692 691 689 687 685 683 680 678 677 676 675 673 672 671 670 669 667 665 662 657 653 651 649 647 647 646 644 642 640
735 735 735 735 735 735 735 735 735 735 734 734 734 734 734 734 734 733 733 733 733 732 732 731 731 730 729 728 727 726 726 725 724 723 722 721 721 720 719 718 717 716 715 713 711 710 708 706 704 703 702 702 701 698 696 693 692 691 689 687 686 684 682 679 677 676 675 673 672 670 669 668 667 666 664 661 657 652 648 645 643 642 642 641 639 637
733 733 734 734 734 734 734 734 733 733 733 733 733 733 733 733 732 732 732 732 732 731 731 730 729 729 728 727 726 725 725 724 723 722 721 720 720 719 718 718 717 716 714 712 710 708 706 704 702 699 698 698 698 697 696 693 691 689 687 685 684 683 681 678 676 674 673 672 670 669 667 666 665 663 662 659 655 651 646 642 640 638 638 637 636 633